Location: Lane
(33.5226°N, 79.8788°W)
Time: 05:52:46
(UTC+00:00)

Vanguard 2 - Pass Details

Date: 07 October 2022
Orbit: 553 x 2933 km, 32.9° (Epoch: 26 November)

Event Time Altitude Azimuth Distance (km) Brightness Sun altitude
Rises 13:46:38 0° 182° (S) 3,308 11.1 28.5°
Reaches altitude 10° 13:50:59 10° 148° (SSE) 2,800 11.5 29.3°
Maximum altitude 13:53:03 11° 130° (SE) 2,907 12.1 29.7°
Drops below altitude 10° 13:55:24 10° 113° (ESE) 3,264 12.3 30.1°
Sets 14:01:56 0° 85° (E) 4,930 12.4 31.2°
